Location: Shades State Park
(39.9310°N, 87.0690°W)
Time: 01:12:24
(UTC-05:00)

Daily predictions for brighter satellites

Satellite Brightness Start Highest point End
(mag) Time Altitude Azimuth Time Altitude Azimuth Time Altitude Azimuth
Cosmos 2369 Rocket 3.9 04:12:46 30° ENE 04:12:46 30° ENE 04:16:09 10° NE
ADEOS II 3.9 04:16:36 10° NNE 04:19:22 28° NE 04:19:22 28° NE
ATLAS CENTAUR R/B 3.4 04:35:03 65° NNE 04:35:25 67° NE 04:49:03 10° SE
USA 234 3.1 04:44:50 10° NE 04:51:19 85° NNW 04:51:19 85° NNW
Cosmos 2266 Rocket 4.1 04:46:09 10° N 04:52:18 68° E 04:58:19 10° SSE
ATLAS 5 CENTAUR R/B 2.6 04:58:27 49° E 04:58:27 49° E 05:02:54 10° NE
CZ-4B R/B 3.8 04:52:35 10° NNE 04:56:41 51° N 04:56:41 51° N
Cosmos 1943 Rocket 2.8 05:03:56 35° SSE 05:05:55 51° ESE 05:11:16 10° NNE
Cosmos 972 Rocket 4.0 05:09:26 77° ENE 05:09:26 77° ENE 05:14:32 10° NNE
Cosmos 1867 4.0 05:12:26 52° N 05:12:26 52° N 05:16:51 10° NNE
Lacrosse 5 2.5 05:12:00 45° SSE 05:12:45 49° SE 05:17:38 10° NE
CZ-4C R/B 4.1 05:12:27 10° SSE 05:16:40 26° ESE 05:21:14 10° ENE
Sich 1 Rocket 4.5 05:13:06 10° N 05:17:32 49° E 05:21:53 10° SSE
Tiangong 1 4.0 05:19:06 14° ESE 05:19:06 14° ESE 05:19:53 10° E
Okean-O 2.7 05:19:37 10° NNE 05:24:05 72° ESE 05:25:06 51° S
Cosmos 1908 Rocket 4.0 05:25:11 10° N 05:29:39 64° E 05:34:05 10° SSE
Cosmos 1190 Rocket 4.0 05:25:03 10° NNW 05:30:19 79° ENE 05:35:36 10° SSE
Meteor 1-31 Rocket 3.0 05:28:06 10° NNE 05:31:28 64° NNE 05:31:28 64° NNE
CZ-4B R/B 3.7 05:31:08 10° NNE 05:35:04 87° E 05:35:27 73° S
Feng Yun 1-1 Rocket 4.3 05:30:51 10° NNE 05:36:45 89° ESE 05:42:41 10° SSW
Cosmos 1624 Rocket 4.1 05:42:42 48° W 05:43:29 52° WNW 05:48:42 10° N
SKYMED 2 4.5 05:40:02 10° SSE 05:44:12 49° ENE 05:48:24 10° N
Cosmos 2056 Rocket 3.5 05:43:43 49° WSW 05:44:32 54° WNW 05:49:37 10° N
Okean 2 Rocket 4.1 05:47:27 10° N 05:51:42 46° E 05:55:55 10° SSE
NOAA 6 4.0 05:49:29 10° NNE 05:54:42 87° ESE 05:59:50 10° SSW
Cosmos 2369 Rocket 2.9 05:54:37 31° WNW 05:55:01 32° WNW 06:00:04 10° N
S3M 4.4 05:51:25 10° S 05:57:41 67° E 06:03:57 10° NNE
Cosmos 1954 Rocket 4.4 05:53:06 10° NNW 05:58:25 68° ENE 06:03:42 10° SSE
ADEOS II 3.2 05:56:51 10° NNW 06:00:20 24° NW 06:00:20 24° NW
Ariane Rocket 4.2 05:59:12 10° NNE 06:04:04 44° E 06:08:53 10° S
Thor Agena Rocket 3.7 06:01:20 10° S 06:06:24 50° W 06:11:27 10° NNW
Cosmos 1553 Rocket 4.1 06:00:41 10° S 06:06:49 82° E 06:13:07 10° N
Cosmos 1703 Rocket 3.5 06:04:05 10° SSW 06:08:19 56° W 06:12:37 10° N
Cosmos 1833 4.1 06:07:04 10° NNW 06:12:37 64° WSW 06:18:07 10° S
Cosmos 1656 Rocket 3.7 06:10:53 10° SSW 06:16:34 88° WNW 06:22:18 10° NNE
FAST 4.3 06:14:48 10° N 06:17:24 78° W 06:20:33 10° S
Cosmos 1452 Rocket 3.6 06:20:54 10° SSW 06:26:04 56° WNW 06:31:18 10° N
Cosmos 2221 Rocket 3.9 06:22:59 10° SSW 06:27:21 46° W 06:31:46 10° N
Meteor 1-14 Rocket 4.3 06:23:43 10° NNW 06:29:25 56° W 06:34:58 10° S
Cosmos 1782 2.9 06:26:49 10° S 06:30:45 81° E 06:34:44 10° N
Radarsat Rocket 4.3 06:23:37 10° N 06:30:59 66° WNW 06:37:25 10° SSW
COSMO-SKYMED 1 2.8 06:28:04 10° S 06:32:13 46° W 06:36:25 10° NNW
USA 234 4.2 06:28:17 10° NE 06:33:51 31° NNW 06:38:41 13° W
Meteor 1-20 Rocket 4.2 06:29:57 10° NNW 06:35:42 81° W 06:41:19 10° S
Cosmos 1741 Rocket 4.3 06:32:33 10° NNW 06:37:48 70° ENE 06:43:01 10° SSE
Abrixas 4.2 06:38:22 14° NW 06:39:49 19° NNW 06:42:00 10° NE
Meteor 2-11 Rocket 4.5 06:34:23 10° S 06:40:29 90° E 06:46:39 10° N
USA 81 4.0 06:36:38 10° S 06:41:54 75° W 06:47:12 10° N
ATLAS 5 CENTAUR R/B 3.1 06:40:02 14° W 06:43:01 24° NW 06:47:11 10° NNE
Meteor 1-28 Rocket 3.5 06:40:22 10° S 06:43:53 42° W 06:47:28 10° NNW
Cosmos 1943 Rocket 3.3 06:45:40 10° WSW 06:49:58 23° NW 06:54:18 10° N
CZ-4 R/B 2.1 06:49:11 10° NNE 06:53:20 60° E 06:57:23 10° S
Tiangong 1 0.8 06:50:38 10° WSW 06:53:31 89° N 06:56:29 10° ENE
Lacrosse 5 2.8 06:51:22 10° W 06:55:54 32° NW 07:00:26 10° NNE
Cosmos 1745 Rocket 4.1 06:50:40 10° NNW 06:56:35 50° W 07:02:26 10° SSW
Meteor 2-6 Rocket 4.1 06:56:44 10° SSW 07:02:06 70° W 07:07:30 10° N
Cosmos 1633 2.8 06:59:51 10° N 07:03:30 74° E 07:07:06 10° SSE
CSL-04 DEB 4.3 07:00:10 10° NNE 07:04:10 86° WNW 07:08:06 10° SSW
Cosmos 1606 2.9 07:00:38 10° SSW 07:04:21 49° W 07:08:09 10° N
CSL-04 Rocket 3.7 06:59:18 10° N 07:04:33 59° WNW 07:09:52 10° SSW
CZ-4C R/B 2.5 06:59:40 10° WSW 07:04:45 45° NW 07:10:29 10° NNE
ATLAS 3B R/B 3.2 06:57:17 10° SSW 07:04:52 78° ESE 07:12:13 10° NE
